Location: Newark
(54.2500°N, 9.1833°E)
Time: 06:29:45
(UTC+00:00)

Vanguard 2 Rocket - Pass Details

Date: 16 December 2019
Orbit: 554 x 3326 km, 32.9° (Epoch: 27 January)

Event Time Altitude Azimuth Distance (km) Brightness Sun altitude
Rises 18:42:14 0° 254° (WSW) 6,576 12.3 -30.8°
Reaches altitude 10° 18:48:25 10° 242° (WSW) 5,074 11.3 -31.7°
Maximum altitude 18:57:29 21° 201° (SSW) 3,350 9.8 -33.0°
Enters shadow 19:01:32 17° 171° (S) 3,231 9.5 -33.6°
